Regional Weather Roundup
Issued by NWS

Home | Current Version | Previous Version | Text Only | Print | Product List | Glossary Off
Versions: 1 2 3 4 5 6 7 8 9 10 11 12 13 14 15 16 17 18 19 20 21 22 23 24 25 26 27 28 29 30 31 32 33 34 35 36 37 38 39 40 41 42 43 44 45 46 47 48 49 50

000
ASUS45 KSLC 270910
RWRUT

UTAH REGIONAL WEATHER ROUNDUP
NATIONAL WEATHER SERVICE SALT LAKE CITY UT
200 AM MST THU NOV 27 2014

UTZ001>011-023>025-271000-

NORTHERN UTAH

CITY           SKY/WX    TMP DP  RH WIND       PRES   REMARKS
BRIGHAM CITY   PTCLDY    43  28  55 W5        30.34S
HILL AFB       PTCLDY    41  26  54 SE12      30.33F
LOGAN          CLEAR     33  27  78 NE5       30.31F WCI  29
OGDEN          PTCLDY    40  27  59 S10       30.32F WCI  33
PROVO AIRPORT  CLEAR     32  28  86 CALM      30.40F
SALT LAKE CITY PTCLDY    43  28  55 SE13      30.32F
VERNAL         PTCLDY    30  22  72 NW5       30.40S WCI  25
WENDOVER       PTCLDY    36  27  69 N6        30.31F WCI  31
HEBER CITY     CLEAR     23  21  93 CALM      30.43S
WEST JORDAN    CLEAR     46  32  57 S18       30.35F

$$

UTZ012>022-026-027-271000-

SOUTHERN/CENTRAL UTAH

CITY           SKY/WX    TMP DP  RH WIND       PRES   REMARKS
BLANDING       CLEAR     33  20  60 N9        30.53R WCI  25
BRYCE CANYON   CLEAR     23  14  68 W10       30.51F WCI  12
CEDAR CITY     CLEAR     27  18  69 NE5       30.42F WCI  22
DELTA          MOCLDY    32  25  74 NE6       30.39S WCI  26
MILFORD        NOT AVBL
MOAB/CYNLANDS  CLEAR     26  12  55 CALM      30.43S
PRICE          CLEAR     32  22  66 CALM      30.44R
ST GEORGE      SUNNY     41  16  36 CALM      30.40S
KANAB          CLEAR     30  14  51 NE7       30.47S WCI  23

$$

REGIONAL REPORTS     COLORADO/ARIZONA

CITY           SKY/WX    TMP DP  RH WIND       PRES   REMARKS
CRAIG, CO      PTCLDY    25  21  85 SE3       30.43R
GRAND JUNCTION CLEAR     27  22  81 E5        30.46R WCI  22
RIFLE          PTCLDY    25  22  88 SE3       30.49S
MONTROSE       CLEAR     26  21  81 S8        30.50S WCI  18
CORTEZ         CLEAR     25  20  81 NE9       30.47S WCI  15
PAGE, AZ       CLEAR     41  16  36 SW5       30.42S
GRAND CANYON   PTCLDY    21   8  57 NE7       30.48F WCI  12
KINGMAN        CLEAR     42  17  36 CALM      30.33F
FLAGSTAFF      PTCLDY    25  12  58 E6        30.48S WCI  18

$$

REGIONAL REPORTS    NEVADA/IDAHO/WYOMING

CITY           SKY/WX    TMP DP  RH WIND       PRES   REMARKS
LAS VEGAS, NV  CLEAR     49  19  30 SW7       30.27S
ELY            PTCLDY    25  14  63 S10       30.44F WCI  15
ELKO           CLOUDY    32  28  85 CALM      30.32F
POCATELLO, ID  CLEAR     51  27  39 S15       30.24R
BURLEY         MOCLDY    48  29  47 SW14      30.21F
EVANSTON, WY   CLEAR     34  23  64 SW17      30.36F WCI  23
ROCK SPRINGS   CLEAR     34  20  56 SW8       30.34F WCI  27

$$


USA.gov is the U.S. government's official web portal to all federal, state and local government web resources and services.